| time (UTC) | temp F | wind direction | speed MPH | gust MPH | rain 1hr in | rain 24hr in | rain mn in | humidity % | barometer mb |
| 20260902013336 | 71 | 39 | 0.0 | 1.0 | 0.00 | 1.02 | 1.02 | 99 | 1015.4 |
| 20260902012832 | 71 | 230 | 0.0 | 0.0 | 0.00 | 1.02 | 1.02 | 99 | 1015.4 |
| 20260902012328 | 71 | 269 | 0.0 | 2.0 | 0.00 | 1.02 | 1.02 | 99 | 1015.7 |
| 20260902011823 | 71 | 297 | 0.0 | 0.0 | 0.00 | 1.02 | 1.02 | 99 | 1015.5 |
| 20260902011318 | 71 | 50 | 0.0 | 0.0 | 0.00 | 1.02 | 1.02 | 99 | 1015.3 |
| 20260902010817 | 71 | 60 | 0.0 | 0.0 | 0.00 | 1.02 | 1.02 | 99 | 1015.4 |
| 20260902010312 | 71 | 50 | 0.0 | 0.0 | 0.00 | 1.02 | 1.02 | 99 | 1015.3 |
| 20260902005811 | 71 | 50 | 0.0 | 0.0 | 0.00 | 1.02 | 1.02 | 99 | 1015.2 |
| 20260902005306 | 71 | 62 | 0.0 | 1.0 | 0.00 | 1.02 | 1.02 | 99 | 1015.1 |
| 20260902004801 | 72 | 256 | 0.0 | 1.0 | 0.00 | 1.02 | 1.02 | 99 | 1015.0 |
| 20260902004256 | 71 | 293 | 1.0 | 2.0 | 0.00 | 1.02 | 1.02 | 99 | 1014.7 |
| 20260902003750 | 72 | 37 | 0.0 | 1.0 | 0.00 | 1.02 | 1.02 | 99 | 1014.9 |
| 20260902003246 | 72 | 62 | 0.0 | 1.0 | 0.00 | 1.02 | 1.02 | 99 | 1014.6 |
| 20260902002742 | 72 | 304 | 0.0 | 0.0 | 0.00 | 1.02 | 1.02 | 99 | 1014.6 |
| 20260902002241 | 72 | 242 | 0.0 | 0.0 | 0.00 | 1.02 | 1.02 | 99 | 1014.4 |
| 20260902001737 | 72 | 17 | 0.0 | 0.0 | 0.00 | 1.02 | 1.02 | 99 | 1014.4 |
| 20260902001237 | 72 | 32 | 0.0 | 1.0 | 0.00 | 1.02 | 1.02 | 99 | 1014.3 |
| 20260902000731 | 73 | 50 | 0.0 | 0.0 | 0.00 | 1.02 | 1.02 | 99 | 1014.4 |
| 20260902000226 | 73 | 37 | 0.0 | 1.0 | 0.00 | 1.02 | 1.02 | 99 | 1014.3 |
| 20260901235721 | 73 | 12 | 1.0 | 1.0 | 0.00 | 1.02 | 1.02 | 99 | 1014.3 |
| 20260901235217 | 73 | 19 | 0.0 | 1.0 | 0.00 | 1.02 | 1.02 | 99 | 1014.2 |
| 20260901234715 | 73 | 309 | 0.0 | 0.0 | 0.00 | 1.02 | 1.02 | 99 | 1014.3 |
| 20260901234210 | 73 | 297 | 0.0 | 0.0 | 0.00 | 1.02 | 1.02 | 99 | 1014.4 |
| 20260901233710 | 73 | 343 | 0.0 | 0.0 | 0.00 | 1.02 | 1.02 | 99 | 1014.3 |
| 20260901233206 | 73 | 322 | 0.0 | 0.0 | 0.00 | 1.02 | 1.02 | 99 | 1014.4 |
| 20260901232701 | 73 | 304 | 0.0 | 0.0 | 0.00 | 1.02 | 1.02 | 99 | 1014.5 |
| 20260901232156 | 73 | 286 | 0.0 | 1.0 | 0.00 | 1.02 | 1.02 | 99 | 1014.4 |
| 20260901231653 | 73 | 303 | 2.0 | 2.0 | 0.00 | 1.02 | 1.02 | 99 | 1014.1 |
| 20260901231149 | 73 | 317 | 0.0 | 1.0 | 0.00 | 1.02 | 1.02 | 99 | 1014.2 |
| 20260901230644 | 74 | 318 | 1.0 | 1.0 | 0.00 | 1.02 | 1.02 | 99 | 1013.8 |
| 20260901230144 | 74 | 355 | 0.0 | 2.0 | 0.00 | 1.02 | 1.02 | 99 | 1014.1 |
| 20260901225639 | 74 | 308 | 0.0 | 2.0 | 0.00 | 1.02 | 1.02 | 99 | 1014.1 |
| 20260901225134 | 74 | 299 | 2.0 | 2.0 | 0.00 | 1.02 | 1.02 | 99 | 1014.0 |
| 20260901224630 | 75 | 297 | 2.0 | 3.0 | 0.00 | 1.02 | 1.02 | 99 | 1014.1 |
| 20260901224126 | 75 | 294 | 2.0 | 3.0 | 0.00 | 1.02 | 1.02 | 99 | 1014.1 |
| 20260901223620 | 75 | 275 | 1.0 | 2.0 | 0.00 | 1.02 | 1.02 | 98 | 1013.9 |
| 20260901223116 | 75 | 291 | 2.0 | 2.0 | 0.00 | 1.02 | 1.02 | 98 | 1013.6 |
| 20260901222612 | 76 | 290 | 1.0 | 2.0 | 0.00 | 1.02 | 1.02 | 98 | 1013.6 |
| 20260901222107 | 76 | 282 | 1.0 | 2.0 | 0.00 | 1.02 | 1.02 | 96 | 1013.9 |
| 20260901221603 | 77 | 323 | 2.0 | 3.0 | 0.00 | 1.02 | 1.02 | 95 | 1013.9 |
| 20260901221059 | 78 | 255 | 0.0 | 2.0 | 0.00 | 1.02 | 1.02 | 93 | 1013.8 |
| 20260901220559 | 78 | 309 | 0.0 | 3.0 | 0.00 | 1.02 | 1.02 | 93 | 1014.0 |
| 20260901220058 | 79 | 289 | 2.0 | 4.0 | 0.00 | 1.02 | 1.02 | 91 | 1014.0 |
| 20260901215556 | 81 | 287 | 1.0 | 2.0 | 0.00 | 1.02 | 1.02 | 89 | 1013.9 |
| 20260901215056 | 80 | 325 | 0.0 | 2.0 | 0.00 | 1.02 | 1.02 | 90 | 1013.9 |
| 20260901214555 | 79 | 293 | 1.0 | 2.0 | 0.00 | 1.02 | 1.02 | 92 | 1014.1 |
| 20260901214049 | 79 | 305 | 1.0 | 2.0 | 0.00 | 1.02 | 1.02 | 93 | 1013.8 |
| 20260901213549 | 79 | 324 | 1.0 | 4.0 | 0.00 | 1.02 | 1.02 | 91 | 1013.9 |
| 20260901213043 | 81 | 293 | 0.0 | 2.0 | 0.00 | 1.02 | 1.02 | 87 | 1013.8 |
| 20260901212538 | 81 | 306 | 2.0 | 2.0 | 0.00 | 1.02 | 1.02 | 90 | 1013.8 |
| 20260901212034 | 82 | 2 | 0.0 | 2.0 | 0.00 | 1.02 | 1.02 | 87 | 1013.5 |
| 20260901211529 | 81 | 359 | 2.0 | 2.0 | 0.00 | 1.02 | 1.02 | 88 | 1013.4 |
| 20260901211026 | 79 | 9 | 1.0 | 3.0 | 0.00 | 1.02 | 1.02 | 91 | 1013.8 |
| 20260901210520 | 80 | 329 | 0.0 | 2.0 | 0.00 | 1.02 | 1.02 | 92 | 1013.7 |
| 20260901210017 | 81 | 354 | 1.0 | 1.0 | 0.00 | 1.02 | 1.02 | 89 | 1013.6 |
| 20260901205511 | 81 | 334 | 1.0 | 2.0 | 0.00 | 1.02 | 1.02 | 90 | 1013.4 |
| 20260901205006 | 80 | 60 | 1.0 | 2.0 | 0.00 | 1.02 | 1.02 | 91 | 1013.6 |
| 20260901204503 | 79 | 22 | 0.0 | 1.0 | 0.00 | 1.02 | 1.02 | 93 | 1013.6 |
| 20260901203957 | 79 | 19 | 0.0 | 1.0 | 0.00 | 1.02 | 1.02 | 94 | 1013.6 |
| 20260901203452 | 79 | 333 | 1.0 | 2.0 | 0.00 | 1.02 | 1.02 | 96 | 1014.0 |
| 20260901202947 | 79 | 285 | 1.0 | 2.0 | 0.00 | 1.02 | 1.02 | 95 | 1013.7 |
| 20260901202447 | 80 | 304 | 1.0 | 1.0 | 0.00 | 1.02 | 1.02 | 95 | 1013.8 |
| 20260901201937 | 79 | 309 | 0.0 | 0.0 | 0.00 | 1.02 | 1.02 | 96 | 1013.8 |
| 20260901201432 | 79 | 333 | 0.0 | 1.0 | 0.00 | 1.02 | 1.02 | 96 | 1013.8 |
| 20260901200931 | 79 | 1 | 1.0 | 2.0 | 0.00 | 1.02 | 1.02 | 95 | 1013.7 |
| 20260901200427 | 78 | 352 | 0.0 | 1.0 | 0.00 | 1.02 | 1.02 | 94 | 1014.0 |
| 20260901195926 | 78 | 357 | 1.0 | 2.0 | 0.00 | 1.02 | 1.02 | 96 | 1013.9 |
| 20260901195424 | 79 | 352 | 0.0 | 1.0 | 0.00 | 1.02 | 1.02 | 95 | 1013.9 |
| 20260901194919 | 79 | 37 | 0.0 | 2.0 | 0.00 | 1.02 | 1.02 | 94 | 1013.8 |
| 20260901194414 | 79 | 67 | 1.0 | 2.0 | 0.00 | 1.02 | 1.02 | 92 | 1013.7 |
| 20260901193910 | 79 | 25 | 0.0 | 1.0 | 0.00 | 1.02 | 1.02 | 91 | 1014.0 |
| 20260901193409 | 79 | 55 | 0.0 | 2.0 | 0.00 | 1.02 | 1.02 | 91 | 1013.9 |
| 20260901192904 | 79 | 19 | 0.0 | 2.0 | 0.00 | 1.02 | 1.02 | 90 | 1014.0 |
| 20260901192400 | 79 | 345 | 0.0 | 2.0 | 0.00 | 1.02 | 1.02 | 89 | 1013.9 |
| 20260901191856 | 79 | 322 | 2.0 | 3.0 | 0.00 | 1.02 | 1.02 | 94 | 1014.1 |
| 20260901191351 | 80 | 154 | 3.0 | 3.0 | 0.00 | 1.02 | 1.02 | 88 | 1013.7 |
| 20260901190847 | 80 | 351 | 1.0 | 2.0 | 0.00 | 1.02 | 1.02 | 87 | 1013.7 |
| 20260901190346 | 81 | 314 | 2.0 | 3.0 | 0.00 | 1.02 | 1.02 | 88 | 1013.9 |
| 20260901185845 | 81 | 61 | 0.0 | 2.0 | 0.00 | 1.02 | 1.02 | 88 | 1013.9 |
| 20260901185344 | 81 | 304 | 3.0 | 3.0 | 0.00 | 1.02 | 1.02 | 89 | 1014.0 |
| 20260901184839 | 81 | 357 | 2.0 | 2.0 | 0.00 | 1.02 | 1.02 | 87 | 1013.9 |
| 20260901184335 | 79 | 232 | 0.0 | 4.0 | 0.00 | 1.02 | 1.02 | 89 | 1013.9 |
| 20260901183830 | 78 | 352 | 2.0 | 2.0 | 0.00 | 1.02 | 1.02 | 93 | 1013.9 |
| 20260901183329 | 78 | 50 | 0.0 | 1.0 | 0.00 | 1.02 | 1.02 | 94 | 1013.9 |
| 20260901182827 | 77 | 7 | 1.0 | 6.0 | 0.00 | 1.02 | 1.02 | 93 | 1014.0 |
| 20260901182326 | 77 | 301 | 2.0 | 3.0 | 0.00 | 1.02 | 1.02 | 93 | 1013.7 |
| 20260901181821 | 77 | 333 | 0.0 | 0.0 | 0.00 | 1.02 | 1.02 | 94 | 1013.5 |
| 20260901181321 | 78 | 261 | 2.0 | 4.0 | 0.00 | 1.02 | 1.02 | 91 | 1013.5 |
| 20260901180814 | 78 | 331 | 1.0 | 2.0 | 0.00 | 1.02 | 1.02 | 94 | 1013.7 |
| 20260901180314 | 78 | 338 | 1.0 | 2.0 | 0.00 | 1.02 | 1.02 | 93 | 1013.6 |
| 20260901175812 | 77 | 258 | 1.0 | 4.0 | 0.00 | 1.02 | 1.02 | 91 | 1013.8 |
| 20260901175308 | 77 | 309 | 0.0 | 1.0 | 0.00 | 1.02 | 1.02 | 98 | 1013.7 |
| 20260901174802 | 76 | 300 | 1.0 | 2.0 | 0.00 | 1.02 | 1.02 | 98 | 1013.6 |
| 20260901174258 | 76 | 266 | 2.0 | 4.0 | 0.00 | 1.02 | 1.02 | 98 | 1013.5 |
| 20260901173754 | 76 | 352 | 0.0 | 1.0 | 0.00 | 1.02 | 1.02 | 99 | 1013.6 |
| 20260901173248 | 75 | 329 | 0.0 | 2.0 | 0.00 | 1.02 | 1.02 | 99 | 1013.5 |
| 20260901172745 | 73 | 163 | 2.0 | 2.0 | 0.00 | 1.02 | 1.02 | 99 | 1013.8 |
| 20260901172243 | 73 | 276 | 2.0 | 3.0 | 0.00 | 1.02 | 1.02 | 99 | 1013.6 |
| 20260901171742 | 72 | 242 | 0.0 | 1.0 | 0.00 | 1.02 | 1.02 | 99 | 1013.7 |
| 20260901171241 | 72 | 304 | 0.0 | 0.0 | 0.00 | 1.02 | 1.02 | 99 | 1013.6 |
| 20260901170740 | 71 | 137 | 0.0 | 1.0 | 0.00 | 1.02 | 1.02 | 99 | 1013.7 |
| 20260901170235 | 72 | 62 | 0.0 | 0.0 | 0.00 | 1.02 | 1.02 | 99 | 1013.9 |
| 20260901165734 | 71 | 283 | 0.0 | 0.0 | 0.00 | 1.02 | 1.02 | 99 | 1013.7 |
| 20260901165234 | 71 | 132 | 1.0 | 2.0 | 0.00 | 1.02 | 1.02 | 99 | 1013.7 |
| 20260901164731 | 71 | 144 | 1.0 | 1.0 | 0.00 | 1.02 | 1.02 | 99 | 1014.0 |
| 20260901164226 | 71 | 229 | 1.0 | 2.0 | 0.00 | 1.02 | 1.02 | 99 | 1013.8 |
| 20260901163721 | 71 | 220 | 0.0 | 2.0 | 0.00 | 1.02 | 1.02 | 99 | 1013.7 |
| 20260901163220 | 71 | 295 | 1.0 | 2.0 | 0.00 | 1.02 | 1.02 | 99 | 1014.0 |
| 20260901162716 | 70 | 251 | 2.0 | 3.0 | 0.00 | 1.02 | 1.02 | 99 | 1014.1 |
| 20260901162215 | 71 | 195 | 1.0 | 2.0 | 0.00 | 1.02 | 1.02 | 99 | 1014.1 |
| 20260901161714 | 70 | 267 | 2.0 | 2.0 | 0.00 | 1.02 | 1.02 | 99 | 1013.9 |
| 20260901161209 | 70 | 309 | 0.0 | 1.0 | 0.00 | 1.02 | 1.02 | 99 | 1014.1 |
| 20260901160705 | 70 | 199 | 0.0 | 0.0 | 0.00 | 1.02 | 1.02 | 99 | 1014.0 |
| 20260901160200 | 70 | 237 | 2.0 | 2.0 | 0.00 | 1.02 | 1.02 | 99 | 1014.1 |
| 20260901155659 | 70 | 233 | 0.0 | 2.0 | 0.00 | 1.02 | 1.02 | 99 | 1014.1 |
| 20260901155154 | 70 | 217 | 0.0 | 0.0 | 0.00 | 1.02 | 1.02 | 99 | 1014.1 |
| 20260901154650 | 70 | 297 | 0.0 | 0.0 | 0.00 | 1.02 | 1.02 | 99 | 1014.3 |
| 20260901154145 | 70 | 304 | 0.0 | 0.0 | 0.00 | 1.02 | 1.02 | 99 | 1014.0 |
| 20260901153640 | 70 | 212 | 0.0 | 1.0 | 0.00 | 1.02 | 1.02 | 99 | 1014.2 |
| 20260901153139 | 70 | 269 | 0.0 | 1.0 | 0.00 | 1.02 | 1.02 | 99 | 1014.2 |
| 20260901152634 | 70 | 22 | 0.0 | 1.0 | 0.00 | 1.02 | 1.02 | 99 | 1014.3 |
| 20260901152132 | 69 | 286 | 1.0 | 2.0 | 0.00 | 1.02 | 1.02 | 99 | 1014.2 |
| 20260901151629 | 69 | 275 | 2.0 | 2.0 | 0.00 | 1.02 | 1.02 | 99 | 1014.3 |
| 20260901151128 | 69 | 269 | 0.0 | 2.0 | 0.00 | 1.02 | 1.02 | 99 | 1014.2 |
| 20260901150627 | 69 | 229 | 0.0 | 2.0 | 0.00 | 1.02 | 1.02 | 99 | 1014.1 |
| 20260901150120 | 69 | 113 | 0.0 | 0.0 | 0.00 | 1.02 | 1.02 | 99 | 1014.2 |
| 20260901145619 | 69 | 76 | 0.0 | 1.0 | 0.00 | 1.02 | 1.02 | 99 | 1014.2 |
| 20260901145118 | 69 | 230 | 0.0 | 2.0 | 0.00 | 1.02 | 1.02 | 99 | 1014.1 |
| 20260901144614 | 69 | 281 | 0.0 | 2.0 | 0.00 | 1.02 | 1.02 | 99 | 1014.2 |
| 20260901144109 | 69 | 215 | 2.0 | 2.0 | 0.05 | 1.02 | 1.02 | 99 | 1014.0 |
| 20260901143604 | 69 | 193 | 0.0 | 1.0 | 0.07 | 1.02 | 1.02 | 99 | 1014.3 |
| 20260901143101 | 69 | 265 | 1.0 | 2.0 | 0.02 | 1.01 | 1.01 | 99 | 1014.1 |
| 20260901142556 | 69 | 236 | 0.0 | 1.0 | 0.00 | 1.01 | 1.01 | 99 | 1014.0 |
| 20260901142055 | 69 | 237 | 1.0 | 2.0 | 0.00 | 1.01 | 1.01 | 99 | 1014.1 |
| 20260901141550 | 69 | 232 | 0.0 | 2.0 | 0.00 | 1.01 | 1.01 | 99 | 1014.1 |
| 20260901141045 | 68 | 352 | 0.0 | 2.0 | 0.02 | 1.01 | 1.01 | 99 | 1014.0 |
| 20260901140543 | 68 | 256 | 0.0 | 1.0 | 0.07 | 1.01 | 1.01 | 99 | 1014.2 |
| 20260901140038 | 68 | 249 | 0.0 | 2.0 | 0.76 | 1.00 | 1.00 | 99 | 1014.2 |
| 20260901135537 | 68 | 235 | 2.0 | 4.0 | 0.92 | 0.98 | 0.98 | 99 | 1014.4 |
| 20260901135033 | 68 | 274 | 1.0 | 4.0 | 0.35 | 0.87 | 0.87 | 99 | 1014.4 |
| 20260901134529 | 68 | 269 | 2.0 | 4.0 | 0.14 | 0.82 | 0.82 | 99 | 1014.2 |
| 20260901134028 | 68 | 263 | 2.0 | 3.0 | 0.05 | 0.81 | 0.81 | 99 | 1014.1 |
| 20260901133527 | 68 | 250 | 3.0 | 4.0 | 0.02 | 0.80 | 0.80 | 99 | 1014.1 |
| 20260901133026 | 68 | 219 | 2.0 | 3.0 | 0.02 | 0.80 | 0.80 | 99 | 1014.4 |
| 20260901132521 | 68 | 224 | 0.0 | 1.0 | 0.05 | 0.80 | 0.80 | 99 | 1014.7 |
| 20260901132020 | 68 | 82 | 0.0 | 1.0 | 0.07 | 0.80 | 0.80 | 99 | 1014.5 |
| 20260901131514 | 68 | 50 | 0.0 | 0.0 | 0.00 | 0.78 | 0.78 | 99 | 1014.9 |
| 20260901131005 | 68 | 141 | 0.0 | 0.0 | 0.40 | 0.78 | 0.78 | 99 | 1014.6 |
| 20260901130505 | 68 | 124 | 0.0 | 1.0 | 0.59 | 0.78 | 0.78 | 99 | 1014.5 |
| 20260901130003 | 68 | 227 | 1.0 | 2.0 | 0.24 | 0.71 | 0.71 | 99 | 1014.7 |
| 20260901125457 | 67 | 282 | 2.0 | 6.0 | 0.02 | 0.68 | 0.68 | 99 | 1014.5 |
| 20260901124957 | 67 | 245 | 2.0 | 4.0 | 0.38 | 0.67 | 0.67 | 99 | 1015.1 |
| 20260901124452 | 67 | 245 | 2.0 | 4.0 | 0.38 | 0.67 | 0.67 | 99 | 1015.1 |
| 20260901123947 | 67 | 248 | 2.0 | 3.0 | 0.12 | 0.61 | 0.61 | 99 | 1014.9 |
| 20260901123442 | 66 | 254 | 3.0 | 3.0 | 0.24 | 0.61 | 0.61 | 99 | 1014.6 |
| 20260901122939 | 66 | 254 | 3.0 | 5.0 | 0.09 | 0.58 | 0.58 | 99 | 1015.0 |
| 20260901122434 | 66 | 118 | 2.0 | 3.0 | 0.59 | 0.57 | 0.57 | 99 | 1015.2 |
| 20260901121934 | 66 | 276 | 1.0 | 2.0 | 0.97 | 0.57 | 0.57 | 99 | 1015.7 |
| 20260901121429 | 66 | 131 | 2.0 | 2.0 | 0.87 | 0.47 | 0.47 | 99 | 1015.5 |
| 20260901120924 | 66 | 334 | 1.0 | 2.0 | 0.85 | 0.39 | 0.39 | 99 | 1015.6 |
| 20260901120423 | 66 | 100 | 2.0 | 3.0 | 0.71 | 0.35 | 0.35 | 99 | 1015.1 |
| 20260901115919 | 66 | 155 | 0.0 | 2.0 | 0.50 | 0.25 | 0.25 | 99 | 1015.0 |
| 20260901115419 | 66 | 80 | 1.0 | 2.0 | 0.57 | 0.22 | 0.22 | 99 | 1014.9 |
| 20260901114917 | 66 | 248 | 3.0 | 4.0 | 0.12 | 0.15 | 0.15 | 99 | 1015.1 |
| 20260901114412 | 66 | 298 | 3.0 | 4.0 | 0.09 | 0.13 | 0.13 | 99 | 1014.6 |
| 20260901113910 | 66 | 72 | 0.0 | 2.0 | 0.12 | 0.12 | 0.12 | 99 | 1014.9 |
| 20260901113409 | 66 | 47 | 0.0 | 2.0 | 0.00 | 0.10 | 0.10 | 99 | 1015.0 |
| 20260901112905 | 66 | 33 | 2.0 | 2.0 | 0.07 | 0.10 | 0.10 | 99 | 1015.1 |
| 20260901112359 | 66 | 178 | 0.0 | 1.0 | 0.17 | 0.10 | 0.10 | 99 | 1014.6 |
| 20260901111854 | 65 | 50 | 0.0 | 0.0 | 0.07 | 0.09 | 0.09 | 99 | 1014.5 |
| 20260901111352 | 65 | 10 | 2.0 | 2.0 | 0.00 | 0.07 | 0.07 | 99 | 1014.7 |
| 20260901110851 | 65 | 30 | 0.0 | 1.0 | 0.00 | 0.07 | 0.07 | 99 | 1014.3 |
| 20260901110347 | 65 | 32 | 1.0 | 1.0 | 0.00 | 0.07 | 0.07 | 99 | 1014.2 |
| 20260901105843 | 65 | 40 | 1.0 | 2.0 | 0.00 | 0.07 | 0.07 | 99 | 1014.4 |
| 20260901105338 | 65 | 24 | 1.0 | 2.0 | 0.00 | 0.07 | 0.07 | 99 | 1014.3 |
| 20260901104835 | 65 | 89 | 0.0 | 2.0 | 0.00 | 0.07 | 0.07 | 99 | 1014.2 |
| 20260901104329 | 65 | 63 | 1.0 | 2.0 | 0.02 | 0.07 | 0.07 | 99 | 1014.4 |
| 20260901103825 | 65 | 70 | 2.0 | 2.0 | 0.19 | 0.07 | 0.07 | 99 | 1014.3 |
| 20260901103319 | 65 | 58 | 1.0 | 2.0 | 0.19 | 0.07 | 0.07 | 99 | 1014.3 |
| 20260901102814 | 65 | 106 | 1.0 | 2.0 | 0.05 | 0.04 | 0.04 | 99 | 1014.3 |
| 20260901102313 | 65 | 44 | 0.0 | 2.0 | 0.02 | 0.04 | 0.04 | 99 | 1014.4 |
| 20260901101810 | 65 | 63 | 0.0 | 2.0 | 0.00 | 0.04 | 0.04 | 99 | 1014.2 |
| 20260901101309 | 65 | 105 | 0.0 | 1.0 | 0.00 | 0.04 | 0.04 | 99 | 1014.0 |
| 20260901100808 | 65 | 50 | 0.0 | 0.0 | 0.00 | 0.04 | 0.04 | 99 | 1014.1 |
| 20260901100303 | 65 | 130 | 1.0 | 2.0 | 0.00 | 0.04 | 0.04 | 99 | 1014.1 |
| 20260901095802 | 65 | 18 | 1.0 | 2.0 | 0.00 | 0.04 | 0.04 | 99 | 1014.3 |
| 20260901095300 | 65 | 89 | 1.0 | 2.0 | 0.00 | 0.04 | 0.04 | 99 | 1014.3 |
| 20260901094754 | 65 | 46 | 1.0 | 1.0 | 0.00 | 0.04 | 0.04 | 99 | 1014.5 |
| 20260901094249 | 65 | 259 | 2.0 | 2.0 | 0.00 | 0.04 | 0.04 | 99 | 1014.3 |
| 20260901093744 | 65 | 50 | 0.0 | 2.0 | 0.00 | 0.04 | 0.04 | 99 | 1014.4 |
| 20260901093243 | 65 | 27 | 1.0 | 2.0 | 0.00 | 0.04 | 0.04 | 99 | 1014.5 |
| 20260901092739 | 65 | 89 | 0.0 | 1.0 | 0.00 | 0.04 | 0.04 | 99 | 1014.3 |
| 20260901092235 | 65 | 316 | 1.0 | 2.0 | 0.00 | 0.04 | 0.04 | 99 | 1014.4 |
| 20260901091730 | 65 | 269 | 0.0 | 1.0 | 0.00 | 0.04 | 0.04 | 99 | 1014.4 |
| 20260901091226 | 65 | 229 | 1.0 | 2.0 | 0.00 | 0.04 | 0.04 | 99 | 1014.5 |
| 20260901090720 | 65 | 254 | 2.0 | 2.0 | 0.00 | 0.04 | 0.04 | 99 | 1014.9 |
| 20260901090210 | 65 | 312 | 1.0 | 2.0 | 0.00 | 0.04 | 0.04 | 99 | 1014.4 |
| 20260901085706 | 65 | 315 | 0.0 | 0.0 | 0.00 | 0.04 | 0.04 | 99 | 1014.6 |
| 20260901085201 | 65 | 50 | 0.0 | 1.0 | 0.00 | 0.04 | 0.04 | 99 | 1015.0 |
| 20260901084658 | 65 | 306 | 1.0 | 2.0 | 0.00 | 0.04 | 0.04 | 99 | 1015.2 |
| 20260901084153 | 65 | 37 | 0.0 | 0.0 | 0.00 | 0.04 | 0.04 | 99 | 1015.2 |
| 20260901083652 | 65 | 55 | 0.0 | 1.0 | 0.00 | 0.04 | 0.04 | 99 | 1015.1 |
| 20260901083152 | 65 | 322 | 0.0 | 0.0 | 0.00 | 0.04 | 0.04 | 99 | 1015.3 |
| 20260901082645 | 65 | 66 | 0.0 | 0.0 | 0.02 | 0.04 | 0.04 | 99 | 1015.2 |
| 20260901082141 | 65 | 38 | 1.0 | 2.0 | 0.02 | 0.04 | 0.04 | 99 | 1015.3 |
| 20260901081636 | 65 | 269 | 0.0 | 1.0 | 0.05 | 0.03 | 0.03 | 99 | 1015.3 |
| 20260901081131 | 65 | 322 | 0.0 | 1.0 | 0.05 | 0.03 | 0.03 | 99 | 1015.4 |
| 20260901080631 | 65 | 274 | 1.0 | 2.0 | 0.05 | 0.02 | 0.02 | 99 | 1015.4 |
| 20260901080129 | 65 | 32 | 1.0 | 1.0 | 0.02 | 0.02 | 0.02 | 99 | 1015.4 |
| 20260901075625 | 65 | 102 | 1.0 | 2.0 | 0.02 | 0.02 | 0.02 | 99 | 1015.5 |
| 20260901075125 | 65 | 57 | 1.0 | 2.0 | 0.05 | 0.02 | 0.02 | 99 | 1015.5 |
| 20260901074624 | 65 | 267 | 2.0 | 3.0 | 0.07 | 0.01 | 0.01 | 99 | 1015.5 |
| 20260901074119 | 65 | 310 | 1.0 | 3.0 | 0.02 | 0.00 | 0.00 | 99 | 1015.5 |
| 20260901073617 | 65 | 324 | 1.0 | 1.0 | 0.00 | 0.00 | 0.00 | 99 | 1015.3 |
| 20260901073117 | 65 | 19 | 0.0 | 0.0 | 0.00 | 0.00 | 0.00 | 99 | 1015.2 |
| 20260901072612 | 65 | 105 | 1.0 | 1.0 | 0.00 | 0.00 | 0.00 | 99 | 1015.4 |
| 20260901072108 | 65 | 89 | 0.0 | 0.0 | 0.00 | 0.00 | 0.00 | 99 | 1015.4 |
| 20260901071607 | 65 | 180 | 0.0 | 0.0 | 0.00 | 0.00 | 0.00 | 99 | 1015.4 |
| 20260901071106 | 65 | 52 | 0.0 | 1.0 | 0.00 | 0.00 | 0.00 | 99 | 1015.6 |
| 20260901070601 | 65 | 92 | 1.0 | 2.0 | 0.00 | 0.00 | 0.00 | 99 | 1015.5 |
| 20260901070056 | 65 | 95 | 1.0 | 2.0 | 0.00 | 0.00 | 0.00 | 99 | 1015.4 |
| 20260901065550 | 65 | 110 | 0.0 | 1.0 | 0.00 | 0.00 | 0.00 | 99 | 1015.5 |
| 20260901065044 | 65 | 235 | 0.0 | 1.0 | 0.00 | 0.00 | 0.00 | 99 | 1015.6 |
| 20260901064542 | 65 | 303 | 2.0 | 2.0 | 0.00 | 0.00 | 0.00 | 99 | 1015.7 |
| 20260901064038 | 65 | 44 | 0.0 | 1.0 | 0.00 | 0.00 | 0.00 | 99 | 1015.4 |
| 20260901063535 | 65 | 36 | 1.0 | 1.0 | 0.00 | 0.00 | 0.00 | 99 | 1015.6 |
| 20260901063030 | 65 | 322 | 0.0 | 0.0 | 0.00 | 0.00 | 0.00 | 99 | 1015.5 |
| 20260901062526 | 65 | 71 | 0.0 | 1.0 | 0.00 | 0.00 | 0.00 | 99 | 1015.7 |
| 20260901062022 | 65 | 129 | 0.0 | 0.0 | 0.00 | 0.00 | 0.00 | 99 | 1015.6 |
| 20260901061519 | 65 | 322 | 0.0 | 0.0 | 0.00 | 0.00 | 0.00 | 99 | 1016.0 |
| 20260901061018 | 65 | 322 | 0.0 | 0.0 | 0.00 | 0.00 | 0.00 | 99 | 1015.9 |
| 20260901060513 | 65 | 326 | 0.0 | 0.0 | 0.00 | 0.00 | 0.00 | 99 | 1015.8 |
| 20260901060008 | 64 | 283 | 0.0 | 0.0 | 0.00 | 0.00 | 0.00 | 99 | 1016.0 |
| 20260901055503 | 65 | 283 | 0.0 | 0.0 | 0.00 | 0.00 | 0.00 | 99 | 1015.8 |
| 20260901055000 | 64 | 283 | 0.0 | 0.0 | 0.00 | 0.00 | 0.00 | 99 | 1016.0 |
| 20260901054457 | 64 | 283 | 0.0 | 0.0 | 0.00 | 0.00 | 0.00 | 99 | 1016.2 |
| 20260901053953 | 64 | 103 | 0.0 | 0.0 | 0.00 | 0.00 | 0.00 | 99 | 1016.1 |
| 20260901053448 | 64 | 89 | 0.0 | 1.0 | 0.00 | 0.00 | 0.00 | 99 | 1016.0 |
| 20260901052943 | 64 | 101 | 1.0 | 1.0 | 0.00 | 0.00 | 0.00 | 99 | 1016.2 |
| 20260901052439 | 64 | 89 | 0.0 | 1.0 | 0.00 | 0.00 | 0.00 | 99 | 1016.1 |
| 20260901051938 | 64 | 66 | 0.0 | 1.0 | 0.00 | 0.00 | 0.00 | 99 | 1016.3 |
| 20260901051434 | 65 | 309 | 0.0 | 0.0 | 0.00 | 0.00 | 0.00 | 99 | 1016.2 |
| 20260901050933 | 65 | 322 | 0.0 | 1.0 | 0.00 | 0.00 | 0.00 | 99 | 1016.2 |
| 20260901050429 | 65 | 89 | 0.0 | 1.0 | 0.00 | 0.00 | 0.00 | 99 | 1016.5 |
| 20260901045928 | 65 | 102 | 0.0 | 2.0 | 0.00 | 0.00 | 0.00 | 99 | 1016.2 |
| 20260901045424 | 65 | 322 | 0.0 | 0.0 | 0.00 | 0.00 | 0.00 | 99 | 1016.3 |
| 20260901044918 | 65 | 49 | 0.0 | 0.0 | 0.00 | 0.00 | 0.00 | 99 | 1016.2 |
| 20260901044415 | 65 | 55 | 0.0 | 0.0 | 0.00 | 0.00 | 0.00 | 99 | 1016.2 |
| 20260901043910 | 65 | 95 | 0.0 | 0.0 | 0.00 | 0.00 | 0.00 | 99 | 1016.1 |
| 20260901043406 | 65 | 46 | 0.0 | 1.0 | 0.00 | 0.00 | 0.00 | 99 | 1016.3 |
| 20260901042900 | 65 | 89 | 0.0 | 1.0 | 0.00 | 0.00 | 0.00 | 99 | 1016.3 |
| 20260901042355 | 65 | 37 | 0.0 | 0.0 | 0.00 | 0.00 | 0.00 | 99 | 1016.1 |
| 20260901041850 | 65 | 40 | 0.0 | 1.0 | 0.00 | 0.00 | 0.00 | 99 | 1016.3 |
| 20260901041345 | 65 | 63 | 1.0 | 1.0 | 0.00 | 0.00 | 0.00 | 99 | 1016.5 |
| 20260901040840 | 65 | 76 | 1.0 | 2.0 | 0.00 | 0.00 | 0.00 | 99 | 1016.2 |
| 20260901040339 | 65 | 113 | 0.0 | 0.0 | 0.00 | 0.00 | 0.00 | 99 | 1016.4 |
| 20260901035838 | 65 | 250 | 1.0 | 1.0 | 0.00 | 0.44 | 0.44 | 99 | 1016.2 |
| 20260901035337 | 65 | 55 | 0.0 | 0.0 | 0.00 | 0.44 | 0.44 | 99 | 1016.1 |
| 20260901034836 | 65 | 89 | 0.0 | 1.0 | 0.00 | 0.44 | 0.44 | 99 | 1016.2 |
| 20260901034331 | 65 | 76 | 0.0 | 1.0 | 0.00 | 0.44 | 0.44 | 99 | 1016.2 |
| 20260901033831 | 65 | 66 | 0.0 | 1.0 | 0.00 | 0.44 | 0.44 | 99 | 1016.3 |
| 20260901033330 | 65 | 50 | 0.0 | 1.0 | 0.00 | 0.44 | 0.44 | 99 | 1016.3 |
| 20260901032829 | 65 | 315 | 0.0 | 1.0 | 0.00 | 0.44 | 0.44 | 99 | 1016.4 |
| 20260901032328 | 65 | 48 | 0.0 | 1.0 | 0.00 | 0.44 | 0.44 | 99 | 1016.2 |
| 20260901031823 | 65 | 55 | 0.0 | 1.0 | 0.00 | 0.44 | 0.44 | 99 | 1016.1 |
| 20260901031319 | 65 | 55 | 0.0 | 1.0 | 0.00 | 0.44 | 0.44 | 99 | 1016.5 |
| 20260901030819 | 65 | 66 | 0.0 | 2.0 | 0.00 | 0.44 | 0.44 | 99 | 1016.3 |
| 20260901030314 | 65 | 24 | 0.0 | 0.0 | 0.00 | 0.44 | 0.44 | 99 | 1016.5 |
| 20260901025813 | 66 | 50 | 0.0 | 0.0 | 0.00 | 0.44 | 0.44 | 99 | 1016.5 |
| 20260901025308 | 66 | 47 | 1.0 | 2.0 | 0.00 | 0.44 | 0.44 | 99 | 1016.3 |
| 20260901024803 | 66 | 32 | 0.0 | 2.0 | 0.02 | 0.44 | 0.44 | 99 | 1016.5 |
| 20260901024302 | 66 | 113 | 0.0 | 0.0 | 0.02 | 0.44 | 0.44 | 99 | 1016.4 |
| 20260901023800 | 66 | 85 | 1.0 | 1.0 | 0.00 | 0.43 | 0.43 | 99 | 1016.4 |
| 20260901023256 | 66 | 89 | 0.0 | 0.0 | 0.00 | 0.43 | 0.43 | 99 | 1016.7 |
| 20260901022751 | 66 | 10 | 1.0 | 2.0 | 0.00 | 0.43 | 0.43 | 99 | 1016.6 |
| 20260901022247 | 66 | 14 | 0.0 | 2.0 | 0.00 | 0.43 | 0.43 | 99 | 1016.7 |
| 20260901021741 | 66 | 345 | 0.0 | 1.0 | 0.00 | 0.43 | 0.43 | 99 | 1016.3 |
| 20260901021237 | 66 | 22 | 0.0 | 2.0 | 0.00 | 0.43 | 0.43 | 99 | 1016.5 |
| 20260901020732 | 66 | 83 | 2.0 | 2.0 | 0.00 | 0.43 | 0.43 | 99 | 1016.6 |
| 20260901020229 | 66 | 24 | 1.0 | 2.0 | 0.00 | 0.43 | 0.43 | 99 | 1016.6 |
| 20260901015728 | 66 | 29 | 1.0 | 2.0 | 0.00 | 0.43 | 0.43 | 99 | 1016.5 |
| 20260901015225 | 66 | 49 | 0.0 | 1.0 | 0.00 | 0.43 | 0.43 | 99 | 1016.7 |
| 20260901014724 | 66 | 60 | 0.0 | 1.0 | 0.00 | 0.43 | 0.43 | 99 | 1016.7 |
| 20260901014220 | 66 | 12 | 2.0 | 2.0 | 0.00 | 0.43 | 0.43 | 99 | 1016.6 |